�������l�o���
Date,Time,MP-1(��Sv/h),MP-2(��Sv/h),MP-3(��Sv/h),MP-4(��Sv/h),MP-5(��Sv/h),MP-6(��Sv/h),MP-7(��Sv/h),MP-8(��Sv/h),����,����(m/s),���J
2017/04/07,00:00,1.024,1.659,1.126,1.976,1.377,0.551,1.003,0.930,��,8.8,�L
2017/04/07,00:10,1.024,1.660,1.128,1.976,1.380,0.552,1.001,0.929,��,11.1,�L
2017/04/07,00:20,1.027,1.659,1.126,1.975,1.377,0.549,1.001,0.930,��,11.0,�L
2017/04/07,00:30,1.025,1.662,1.128,1.972,1.378,0.550,1.002,0.927,��,9.6,��
2017/04/07,00:40,1.025,1.661,1.128,1.978,1.379,0.550,1.002,0.928,��,9.5,��
2017/04/07,00:50,1.023,1.660,1.127,1.977,1.380,0.550,1.003,0.929,��,10.5,��
2017/04/07,01:00,1.025,1.660,1.127,1.972,1.377,0.549,1.002,0.930,��,12.5,�L
2017/04/07,01:10,1.027,1.658,1.128,1.973,1.380,0.549,1.001,0.931,��,12.2,��
2017/04/07,01:20,1.026,1.660,1.128,1.977,1.377,0.551,1.002,0.931,��,11.6,��
2017/04/07,01:30,1.026,1.662,1.131,1.980,1.377,0.550,1.001,0.930,��,12.7,��
2017/04/07,01:40,1.028,1.663,1.127,1.976,1.381,0.550,1.002,0.931,��,12.5,��
2017/04/07,01:50,1.026,1.662,1.128,1.977,1.380,0.549,1.000,0.929,��,12.1,��
2017/04/07,02:00,1.028,1.663,1.128,1.976,1.378,0.549,1.001,0.929,��,13.2,��
2017/04/07,02:10,1.026,1.666,1.129,1.976,1.378,0.550,1.002,0.929,��쓌,13.0,��
2017/04/07,02:20,1.027,1.661,1.127,1.977,1.374,0.551,1.002,0.929,��쓌,13.8,��
2017/04/07,02:30,1.026,1.662,1.127,1.979,1.378,0.550,1.000,0.929,��쓌,13.2,��
2017/04/07,02:40,1.028,1.660,1.128,1.974,1.377,0.550,1.001,0.930,��쓌,10.8,��
2017/04/07,02:50,1.027,1.661,1.128,1.978,1.378,0.550,1.001,0.930,��쓌,11.8,��
2017/04/07,03:00,1.024,1.660,1.126,1.977,1.376,0.552,1.000,0.929,��쓌,9.5,��
2017/04/07,03:10,1.024,1.662,1.128,1.976,1.375,0.550,1.004,0.929,��쓌,7.8,��
2017/04/07,03:20,1.027,1.664,1.127,1.973,1.378,0.550,1.001,0.929,��쓌,7.9,��
2017/04/07,03:30,1.025,1.661,1.129,1.977,1.376,0.551,1.001,0.932,��,5.8,��
2017/04/07,03:40,1.026,1.659,1.126,1.979,1.378,0.551,1.003,0.931,��,6.1,��
2017/04/07,03:50,1.026,1.662,1.126,1.977,1.378,0.551,1.002,0.931,��,8.3,��
2017/04/07,04:00,1.025,1.663,1.128,1.978,1.379,0.550,1.002,0.929,��,8.0,��
2017/04/07,04:10,1.025,1.661,1.129,1.978,1.374,0.549,1.001,0.929,��,11.0,��
2017/04/07,04:20,1.025,1.663,1.127,1.976,1.376,0.550,1.003,0.931,��,9.0,��
2017/04/07,04:30,1.029,1.664,1.130,1.982,1.376,0.551,1.002,0.928,��,10.4,�L
2017/04/07,04:40,1.028,1.663,1.129,1.978,1.378,0.550,1.003,0.930,��,10.3,�L
2017/04/07,04:50,1.026,1.662,1.129,1.979,1.378,0.552,1.001,0.931,��,11.6,�L
2017/04/07,05:00,1.030,1.667,1.131,1.978,1.380,0.551,1.002,0.930,��쐼,10.2,��
2017/04/07,05:10,1.028,1.664,1.132,1.975,1.377,0.550,1.002,0.931,��,10.5,��
2017/04/07,05:20,1.028,1.664,1.130,1.974,1.375,0.552,1.002,0.931,��,8.7,��
2017/04/07,05:30,1.026,1.663,1.130,1.978,1.378,0.550,1.002,0.932,��,7.8,�L
2017/04/07,05:40,1.027,1.664,1.130,1.974,1.377,0.551,1.002,0.932,��,7.4,�L
2017/04/07,05:50,1.025,1.663,1.128,1.978,1.381,0.550,1.000,0.931,��,8.3,�L
2017/04/07,06:00,1.026,1.662,1.126,1.980,1.379,0.552,1.001,0.932,��,8.8,�L
2017/04/07,06:10,1.026,1.665,1.127,1.978,1.379,0.550,1.000,0.931,��,8.3,�L
2017/04/07,06:20,1.027,1.661,1.128,1.979,1.379,0.549,1.001,0.930,��,10.0,�L
2017/04/07,06:30,1.026,1.663,1.127,1.976,1.380,0.550,1.001,0.929,��쓌,10.5,�L
2017/04/07,06:40,1.025,1.664,1.130,1.977,1.376,0.551,1.003,0.930,��,10.3,�L
2017/04/07,06:50,1.025,1.664,1.129,1.977,1.380,0.549,1.003,0.930,��,9.7,�L
2017/04/07,07:00,1.027,1.662,1.129,1.979,1.378,0.551,1.002,0.931,��,8.6,�L
2017/04/07,07:10,1.026,1.661,1.130,1.978,1.377,0.552,1.002,0.931,��,8.5,�L
2017/04/07,07:20,1.027,1.666,1.131,1.979,1.379,0.550,1.002,0.931,��,8.7,�L
2017/04/07,07:30,1.027,1.660,1.128,1.977,1.379,0.552,1.003,0.930,��,9.0,�L
2017/04/07,07:40,1.027,1.663,1.132,1.979,1.379,0.552,1.002,0.930,��,10.5,�L
2017/04/07,07:50,1.026,1.664,1.130,1.976,1.380,0.551,1.003,0.933,��,10.7,�L
2017/04/07,08:00,1.026,1.663,1.129,1.978,1.380,0.551,1.002,0.929,��,10.4,�L
2017/04/07,08:10,1.025,1.665,1.130,1.977,1.378,0.550,1.003,0.929,��,11.6,�L
2017/04/07,08:20,1.027,1.663,1.130,1.979,1.381,0.552,1.003,0.929,��,11.3,�L
2017/04/07,08:30,1.027,1.663,1.128,1.976,1.380,0.552,1.003,0.931,��,10.5,�L
2017/04/07,08:40,1.028,1.658,1.128,1.977,1.376,0.551,1.001,0.930,��쓌,10.5,�L
2017/04/07,08:50,1.026,1.651,1.128,1.975,1.379,0.550,1.003,0.929,��,9.0,��
2017/04/07,09:00,1.025,1.657,1.129,1.977,1.379,0.550,1.002,0.929,��,7.8,��
2017/04/07,09:10,1.025,1.658,1.128,1.978,1.377,0.549,1.003,0.930,��,8.2,��
2017/04/07,09:20,1.025,1.656,1.127,1.975,1.378,0.550,1.001,0.929,��쓌,8.6,��
2017/04/07,09:30,1.026,1.657,1.125,1.977,1.379,0.549,1.002,0.930,��,6.8,��
2017/04/07,09:40,1.026,1.657,1.129,1.978,1.378,0.549,1.001,0.931,��,5.4,��
2017/04/07,09:50,1.025,1.659,1.128,1.979,1.379,0.550,1.002,0.930,��,5.4,��
2017/04/07,10:00,1.027,1.660,1.127,1.978,1.380,0.550,1.003,0.929,��,3.6,��
2017/04/07,10:10,1.025,1.658,1.129,1.977,1.378,0.549,1.001,0.930,��,4.3,��
2017/04/07,10:20,1.028,1.661,1.128,1.978,1.378,0.549,1.000,0.929,��,4.1,��
2017/04/07,10:30,1.027,1.660,1.127,1.981,1.375,0.550,1.002,0.931,��,3.8,��
2017/04/07,10:40,1.029,1.659,1.129,1.978,1.375,0.549,0.999,0.930,��쐼,3.5,��
2017/04/07,10:50,1.027,1.665,1.129,1.978,1.375,0.548,1.000,0.930,��,3.1,��
2017/04/07,11:00,1.028,1.663,1.127,1.981,1.376,0.546,1.002,0.930,��,4.4,��
2017/04/07,11:10,1.027,1.662,1.131,1.981,1.376,0.547,1.000,0.929,��,5.0,��
2017/04/07,11:20,1.029,1.660,1.131,1.980,1.376,0.548,0.998,0.927,��쓌,5.5,��
2017/04/07,11:30,1.030,1.662,1.131,1.981,1.378,0.548,1.002,0.928,��쓌,6.6,��
2017/04/07,11:40,1.029,1.661,1.132,1.982,1.379,0.550,1.001,0.929,��쓌,7.3,��
2017/04/07,11:50,1.029,1.662,1.133,1.981,1.380,0.550,1.002,0.929,��,7.3,��
2017/04/07,12:00,1.031,1.662,1.132,1.983,1.383,0.547,1.003,0.930,��,7.4,��
2017/04/07,12:10,1.029,1.663,1.136,1.987,1.382,0.549,1.005,0.928,��,6.1,��
2017/04/07,12:20,1.033,1.666,1.133,1.987,1.384,0.548,1.003,0.929,��,6.3,��
2017/04/07,12:30,1.034,1.667,1.134,1.983,1.382,0.550,1.005,0.931,��쓌,6.9,��
2017/04/07,12:40,1.033,1.666,1.135,1.987,1.387,0.554,1.007,0.931,�쐼,3.6,��
2017/04/07,12:50,1.034,1.664,1.135,1.986,1.384,0.552,1.007,0.929,���쐼,3.9,��
2017/04/07,13:00,1.037,1.668,1.135,1.989,1.384,0.552,1.007,0.931,���쐼,4.5,��
2017/04/07,13:10,1.036,1.667,1.136,1.988,1.385,0.552,1.006,0.928,���쐼,6.6,��
2017/04/07,13:20,1.038,1.666,1.136,1.992,1.386,0.552,1.007,0.931,���쐼,7.2,��
2017/04/07,13:30,1.038,1.668,1.136,1.988,1.388,0.551,1.010,0.931,�쐼,6.3,��
2017/04/07,13:40,1.037,1.670,1.139,1.989,1.391,0.553,1.008,0.931,��,5.0,��
2017/04/07,13:50,1.040,1.672,1.138,1.989,1.389,0.552,1.008,0.932,��,4.7,��
2017/04/07,14:00,1.038,1.669,1.138,1.990,1.393,0.552,1.008,0.930,�쐼,4.8,��
2017/04/07,14:10,1.040,1.670,1.137,1.992,1.392,0.554,1.009,0.930,�쐼,5.2,��
2017/04/07,14:20,1.038,1.675,1.139,1.991,1.393,0.552,1.008,0.932,�쐼,5.6,��
2017/04/07,14:30,1.043,1.674,1.138,1.990,1.390,0.553,1.007,0.931,���쐼,6.0,��
2017/04/07,14:40,1.039,1.678,1.141,1.992,1.392,0.554,1.009,0.928,���쐼,7.3,��
2017/04/07,14:50,1.041,1.680,1.140,1.992,1.385,0.553,1.009,0.932,���쐼,5.8,��
2017/04/07,15:00,1.042,1.676,1.138,1.987,1.392,0.554,1.008,0.930,���쐼,7.5,��
2017/04/07,15:10,1.041,1.675,1.138,1.989,1.392,0.554,1.009,0.932,���쐼,6.1,��
2017/04/07,15:20,1.040,1.678,1.140,1.990,1.393,0.552,1.007,0.932,���쐼,6.9,��
2017/04/07,15:30,1.042,1.677,1.139,1.991,1.395,0.554,1.008,0.932,��,7.5,��
2017/04/07,15:40,1.043,1.679,1.139,1.994,1.393,0.553,1.010,0.932,��,8.5,��
2017/04/07,15:50,1.040,1.677,1.140,1.993,1.388,0.552,1.008,0.931,��,6.3,��
2017/04/07,16:00,1.043,1.677,1.143,1.995,1.391,0.553,1.007,0.932,��,6.1,��
2017/04/07,16:10,1.044,1.678,1.140,1.997,1.393,0.553,1.009,0.931,��,7.0,��
2017/04/07,16:20,1.042,1.679,1.139,1.994,1.394,0.553,1.007,0.932,��,8.4,��
2017/04/07,16:30,1.039,1.678,1.140,1.995,1.392,0.551,1.009,0.932,��,8.3,��
2017/04/07,16:40,1.041,1.679,1.140,1.994,1.392,0.553,1.008,0.932,��,7.5,��
2017/04/07,16:50,1.042,1.678,1.139,1.997,1.390,0.554,1.009,0.930,��,5.7,��
2017/04/07,17:00,1.038,1.675,1.138,1.995,1.393,0.552,1.008,0.932,�k�k��,2.0,��
2017/04/07,17:10,1.041,1.677,1.136,1.992,1.394,0.550,1.006,0.930,�k�k��,2.3,��
2017/04/07,17:20,1.039,1.679,1.134,1.993,1.393,0.553,1.005,0.931,�k�k��,4.3,��
2017/04/07,17:30,1.036,1.678,1.137,1.991,1.393,0.553,1.006,0.932,�k�k��,4.2,��
2017/04/07,17:40,1.038,1.678,1.136,1.995,1.393,0.553,1.006,0.932,�k�k��,3.6,��
2017/04/07,17:50,1.036,1.679,1.136,1.994,1.392,0.554,1.007,0.930,�k�k��,3.9,��
2017/04/07,18:00,1.039,1.681,1.138,1.997,1.393,0.554,1.006,0.932,�k�k��,3.2,��
2017/04/07,18:10,1.040,1.680,1.138,1.997,1.394,0.552,1.006,0.932,�k�k��,3.3,��
2017/04/07,18:20,1.039,1.680,1.139,1.996,1.392,0.553,1.005,0.933,�k�k��,2.8,��
2017/04/07,18:30,1.038,1.678,1.139,1.995,1.391,0.552,1.005,0.932,�k�k��,3.0,��
2017/04/07,18:40,1.040,1.679,1.140,1.995,1.393,0.551,1.004,0.934,�k��,2.2,��
2017/04/07,18:50,1.040,1.676,1.136,1.992,1.394,0.552,1.007,0.933,�k�k��,1.7,��
2017/04/07,19:00,1.039,1.681,1.137,1.993,1.393,0.553,1.005,0.933,�k�k��,2.0,��
2017/04/07,19:10,1.041,1.679,1.136,1.994,1.394,0.552,1.009,0.933,�k��,2.3,��
2017/04/07,19:20,1.039,1.677,1.137,1.994,1.391,0.551,1.005,0.934,�k�k��,2.3,��
2017/04/07,19:30,1.038,1.679,1.137,1.991,1.395,0.551,1.007,0.932,�k�k��,2.6,��
2017/04/07,19:40,1.039,1.677,1.135,1.994,1.393,0.553,1.007,0.932,�k�k��,2.6,��
2017/04/07,19:50,1.039,1.677,1.138,1.994,1.392,0.551,1.007,0.931,�k�k��,2.5,��
2017/04/07,20:00,1.038,1.677,1.137,1.992,1.393,0.550,1.007,0.933,�k�k��,3.0,��
2017/04/07,20:10,1.038,1.675,1.137,1.994,1.392,0.551,1.007,0.930,�k�k��,2.8,��
2017/04/07,20:20,1.037,1.676,1.135,1.993,1.395,0.551,1.005,0.930,�k�k��,2.6,��
2017/04/07,20:30,1.037,1.676,1.136,1.995,1.393,0.551,1.007,0.931,�k�k��,3.4,��
2017/04/07,20:40,1.038,1.675,1.137,1.990,1.390,0.549,1.007,0.932,�k��,3.2,��
2017/04/07,20:50,1.039,1.676,1.138,1.991,1.391,0.551,1.008,0.931,�k��,2.6,��
2017/04/07,21:00,1.037,1.674,1.136,1.992,1.390,0.550,1.006,0.930,�k�k��,3.3,��
2017/04/07,21:10,1.038,1.677,1.138,1.992,1.394,0.551,1.006,0.932,�k�k��,3.2,��
2017/04/07,21:20,1.036,1.674,1.135,1.992,1.392,0.551,1.005,0.931,�k�k��,3.4,��
2017/04/07,21:30,1.035,1.677,1.136,1.992,1.391,0.550,1.005,0.932,�k,3.5,��
2017/04/07,21:40,1.036,1.675,1.138,1.992,1.394,0.551,1.006,0.932,�k�k��,3.1,��
2017/04/07,21:50,1.035,1.675,1.138,1.993,1.391,0.552,1.006,0.933,�k�k��,3.8,��
2017/04/07,22:00,1.037,1.674,1.137,1.990,1.391,0.550,1.005,0.930,�k�k��,3.8,��
2017/04/07,22:10,1.037,1.677,1.136,1.988,1.391,0.550,1.005,0.932,�k�k��,4.7,��
2017/04/07,22:20,1.037,1.671,1.136,1.994,1.390,0.550,1.005,0.932,�k�k��,4.4,��
2017/04/07,22:30,1.035,1.674,1.134,1.992,1.390,0.550,1.005,0.931,�k�k��,4.7,��
2017/04/07,22:40,1.034,1.672,1.136,1.991,1.390,0.551,1.005,0.932,�k�k��,4.8,��
2017/04/07,22:50,1.035,1.672,1.132,1.992,1.389,0.549,1.006,0.932,�k�k��,6.2,��
2017/04/07,23:00,1.037,1.675,1.135,1.990,1.392,0.550,1.005,0.933,�k�k��,5.5,��
2017/04/07,23:10,1.035,1.674,1.136,1.993,1.391,0.549,1.004,0.931,�k�k��,5.6,��
2017/04/07,23:20,1.036,1.674,1.135,1.992,1.388,0.550,1.006,0.932,�k�k��,6.3,��
2017/04/07,23:30,1.034,1.674,1.135,1.991,1.389,0.548,1.006,0.930,�k�k��,7.2,��
2017/04/07,23:40,1.034,1.675,1.133,1.990,1.389,0.550,1.003,0.933,�k�k��,6.9,��
2017/04/07,23:50,1.035,1.675,1.133,1.992,1.388,0.549,1.004,0.931,�k�k��,6.3,��
